www.pogodaiklimat.ru

Погода и климат >> Архив погоды >> Кот-д'Ивуар >> Одиенне


ПОГОДА в Одиенне

  • Прогноз погоды в Одиенне
  • Монитор погоды в Одиенне

АРХИВ ПОГОДЫ в Одиенне

Время (UTC), дата Ветер
(напр.,м/с)
 
Видим.   Явления Облачность Т
(С)
Тd
(С)
f
(%)
Тe
(С)
Тes
(С)
Комфортность P
(гПа)
Po
(гПа)
Тmin
(С)
Tmax
(С)
R
(мм)
R24
(мм)
S
(см)
06 11.06 ЮВ 1 8000 м 9/1 480 м
[Sc Ac trans Ci sp]
+23.3 +22.7 96 +32 +32 очень
душно
1011.3 964.5 +22.7 2
12 11.06 ЮВ 4 10 км 9/6 450 м
[Cu med, cong Ac trans]
+30.0 +24.4 72 +42 +45 опасность
перегрева
1011.2 965.4
18 11.06 Ю 2 8000 м {гроза} 9/1 450 м
[Cb cap Ci ing]
+25.7 +22.7 84 +34 +35 очень
душно
1009.5 963.1 +31.5
00 12.06 штиль 0 8000 м 9/1 400 м
[Sc Ac As Ci sp]
+24.5 +24.1 98 +34 +34 очень
душно
1011.6 965.0
06 12.06 штиль 0 8000 м 8/5 400 м
[Sc Ac trans Ci sp]
+23.8 +23.5 98 +32 +32 очень
душно
1012.1 965.3 +22.5
12 12.06 ЮЗ 2 8000 м {дождь} 9/5 450 м
[Cu med, cong Ci sp]
+23.0 +23.0 100 +32 +41 очень
душно
1012.4 966.4 0.0
18 12.06 Ю 1 10 км 6/4 400 м
[Cu med, cong Ci sp]
+29.4 +22.7 67 +39 +39 очень
душно
1010.0 964.1 +31.2 0.0
06 13.06 штиль 0 8000 м 3/0
[Ac trans]
+23.3 +22.9 98 +33 +33 очень
душно
1013.3 966.4 +22.8
12 13.06 Ю 1 10 км 6/6 450 м
[Cu med, cong]
+30.7 +22.9 63 +41 +50 опасность
перегрева
1013.3 967.5
18 13.06 ЮВ 1 10 км 3/3 450 м
[Cu med, cong]
+31.8 +22.4 58 +41 +42 опасность
перегрева
1009.4 963.9 +33.0
21 13.06 ЮВ 1 10 км гроза без осадков 6/5 400 м
[Cb cap]
+29.2 +23.2 70 +39 +39 очень
душно
1012.4 966.4
00 14.06 СЗ 1 8000 м гроза без осадков 8/5 400 м
[Cb cap]
+26.4 +23.2 83 +36 +36 очень
душно
1013.3 966.9 5
03 14.06 штиль 0 8000 м 5/4 400 м
[Cu med, cong Ac trans]
+25.5 +23.3 88 +34 +34 очень
душно
1012.0 965.5
06 14.06 штиль 0 800 м туман 6/4 400 м
[Sc Ac trans]
+22.7 +22.7 100 +31 +31 очень
душно
1013.0 966.0 +21.8 5
09 14.06 СВ 1 10 км {туман} 1/1 400 м
[Sc Ac trans]
+28.0 +23.4 76 +38 +47 очень
душно
1013.3 967.1
12 14.06 З 2 10 км {туман} 6/6 400 м
[Cu med, cong]
+31.3 +23.8 64 +42 +51 опасность
перегрева
1012.4 966.7
15 14.06 ЮВ 1 10 км гроза без осадков 9/5 480 м
[Cb cap Ci ing]
+30.4 +25.1 73 +44 +50 опасность
перегрева
1009.6 964.0
18 14.06 штиль 0 10 км гроза без осадков 9/1 450 м
[Cb cap Ci ing]
+26.2 +25.4 95 +38 +39 очень
душно
1010.8 964.5 +32.1 0.0
21 14.06 СВ 1 8000 м гроза, ливневой дождь 9/5 400 м
[Cb cap Ac As]
+25.5 +22.2 82 +33 +33 очень
душно
1014.4 967.3
00 15.06 В 1 8000 м {гроза, дождь} 9/1 180 м
[Frnb Ac trans Ci sp]
+22.7 +22.4 98 +31 +31 очень
душно
1014.2 967.1 4
03 15.06 ЮВ 2 8000 м сильн. гроза, ливневой дождь 9/9 400 м
[Cb cap]
+19.7 +19.7 100 +23 +23 комфорт 1015.4 967.7
06 15.06 штиль 0 8000 м в посл. час гроза {дождь} 9/1 400 м
[Sc Ac trans Ci sp]
+20.1 +20.1 100 +24 +24 комфорт 1013.4 965.9 +18.8 24
09 15.06 В 1 8000 м 6/4 400 м
[Sc Ac trans Ci sp]
+23.0 +21.5 91 +31 +36 очень
душно
1013.5 966.5
12 15.06 ЮВ 1 8000 м 3/1 450 м
[Cu med, cong Ci sp]
+28.6 +23.2 73 +39 +59 опасность
солнечного
удара
1012.5 966.4
15 15.06 В 2 8000 м 9/4 450 м
[Cu med, cong Ac As]
+31.7 +23.0 60 +42 +45 опасность
перегрева
1010.1 964.6
18 15.06 В 1 8000 м 9/3 450 м
[Cu med, cong Ac As]
+29.3 +24.4 75 +41 +41 опасность
перегрева
1011.2 965.3 +31.7
21 15.06 штиль 0 8000 м 8/0
[Ac trans Ci sp]
+27.0 +25.6 92 +40 +40 очень
душно
1013.6 967.3
00 16.06 ЮВ 1 8000 м 3/0
[Ci sp]
+25.0 +24.3 96 +35 +35 очень
душно
1014.7 968.0
03 16.06 ЮВ 1 8000 м 5/0
[Ci sp]
+24.0 +23.6 98 +33 +33 очень
душно
1012.8 966.0
06 16.06 СВ 1 8000 м 6/0
[Ci sp]
+23.2 +22.9 98 +32 +32 очень
душно
1013.4 966.5 +23.0
09 16.06 ЮВ 1 8000 м 5/0
[Ci sp]
+26.7 +23.6 83 +36 +45 очень
душно
1013.0 966.6
12 16.06 Ю 1 10 км 6/5 450 м
[Cu med, cong Ci sp]
+31.7 +24.0 64 +44 +55 опасность
перегрева
1011.7 966.1
15 16.06 ЮВ 1 10 км 5/5 450 м
[Cu med, cong]
+32.8 +23.2 57 +43 +51 опасность
перегрева
1009.7 964.4
18 16.06 В 1 10 км 4/4 450 м
[Cu med, cong Ci sp]
+32.6 +22.6 56 +42 +43 опасность
перегрева
1009.3 963.9 +33.5
21 16.06 ЮВ 1 10 км зарница 4/4 400 м
[Cb cap Ci sp]
+28.6 +24.2 77 +40 +40 очень
душно
1012.1 966.1
00 17.06 Ю 2 10 км 5/1 400 м
[Cb cap Ci sp]
+26.0 +23.9 88 +36 +36 очень
душно
1012.7 966.2
03 17.06 В 1 10 км 4/0
[Ci sp]
+24.1 +22.8 92 +32 +32 очень
душно
1011.7 965.0
06 17.06 В 1 10 км ясно +22.7 +22.1 96 +31 +31 очень
душно
1012.8 965.8 +22.0
09 17.06 ЮВ 1 8000 м ясно +27.1 +23.7 82 +37 +47 очень
душно
1013.6 967.3
15 17.06 ЮВ 5 10 км 9/4 450 м
[Cu med, cong Ac trans Ci sp]
+31.5 +24.2 65 +43 +46 опасность
перегрева
1010.2 964.7
18 17.06 Ю 2 10 км 9/1 450 м
[Cu med, cong Ac trans Ci sp]
+29.8 +23.4 69 +40 +41 очень
душно
1009.4 963.6 +33.0

 

Местоположение метеостанции Одиенне (Кот-д'Ивуар): широта 9.54 долгота -7.56 высота над уровнем моря 421 м.

В архиве по умолчанию представлена погода в Одиенне за последнюю неделю. Архивные данные за месяц целиком и за предыдущие месяцы, начиная с января 2011 года, Вы можете получить, выбрав интересующий диапазон дат из раскрывающегося списка и нажав кнопку "Ввод!".


*Определитесь, кто Вы:
робот инопланетянин человек

Внимание! Время в таблицах - всемирное. Для получения местного времени необходимо прибавить поправку, которая равна 0 ч.

Смотрите также архив погоды в соседних городах и на ближайших метеорологических станциях:

Погода в Бугуни (Мали) (209 км)
Погода в Корого (Кот-д'Ивуар) (213 км)
Погода в Мане (Кот-д'Ивуар) (240 км)
Погода в Сикасо (Мали) (288 км)
Погода в Далоа (Кот-д'Ивуар) (320 км)
Погода в Бамако (Мали) (335 км)
Погода в Буаке (Кот-д'Ивуар) (338 км)
Погода в Ямусукро (Кот-д'Ивуар) (381 км)
Погода в Кутиале (Мали) (390 км)
Погода в Бобо-Диуласо (Буркина-Фасо) (398 км)

Пояснения к столбцам:

Ветер - указаны скорость ветра в м/с - средняя за 10 мин, порывы в срок и между сроками (в фигурных скобках) и направление, откуда дует ветер: С - северный, СВ - северо-восточный, В - восточный, ЮВ - юго-восточный, Ю - южный, ЮЗ - юго-западный, З - западный, СЗ - северо-западный.
Видимость - горизонтальная дальность видимости в метрах или километрах. При видимости от 1 до 10 км при отсутствии осадков обычно наблюдается дымка, при ухудшении видимости до 1 км и менее - туман. В сухую погоду видимость может ухудшаться дымом, пылью или мглою.
Явления - указаны атмосферные явления, наблюдавшиеся в срок или в последний час перед сроком; фигурными скобками обозначены явления, наблюдавшиеся между сроками (за 1-3 часа до срока); квадратными скобками обозначены град или гололедные отложения с указанием их диаметра в мм.
Облачность - указаны через наклонную черту общая и нижняя облачность в баллах и высота нижней границы облаков в метрах; квадратными скобками обозначены формы облаков: Ci - перистые, Cs - перисто-слоистые, Cc - перисто-кучевые, Ac - высококучевые, As - высокослоистые, Sc - слоисто-кучевые, Ns - слоисто-дождевые, Cu - кучевые, Cb - кучево-дождевые. Подробнее классификацию облаков см. в Атласе облаков (PDF).
T - Температура воздуха - температура, измеренная на высоте 2 м над землей.
Td - Температура точки росы - температура, при понижении до которой содержащийся в воздухе водяной пар достигнет насыщения.
f - Относительная влажность воздуха - влажноcть воздуха, измеренная на высоте 2 м над землей.
Te - Эффективная температура - температура, которую ощущает одетый по сезону человек в тени. Характеристика душности погоды. При расчете учитывается влияние влажности воздуха и скорости ветра на теплоощущения человека.
Tes - Эффективная температура на солнце - температура, которую ощущает человек, с поправкой на солнечный нагрев. Характеристика знойности погоды. Зависит от высоты солнца над горизонтом, облачности и скорости ветра. Ночью, в пасмурную погоду, а также при ветре 12 м/с и более поправка равна нулю.
P - Атмосферное давление - приведенное к уровню моря атмосферное давление.
Po - Атмосферное давление - измеренное на уровне метеостанции атмосферное давление.
Tmin - Минимальная температура - минимум температуры воздуха на высоте 2 м над землей.
Tmax - Максимальная температура - максимум температуры воздуха на высоте 2 м над землей.
R - Количество осадков - Количество выпавших осадков за период времени, мм. При наведении курсора мыши на число - период времени, за который выпало указанное количество осадков.
R24 - Количество осадков - Количество выпавших осадков за 24 часа, мм.
S - Снежный покров - Высота снежного покрова, см. При наведении курсора мыши на число - состояние снежного покрова и степень покрытия местности в баллах.